Date,TemperatureHighF,TemperatureAvgF,TemperatureLowF,DewpointHighF,DewpointAvgF,DewpointLowF,HumidityHigh,HumidityAvg,HumidityLow,PressureMaxIn,PressureMinIn,WindSpeedMaxMPH,WindSpeedAvgMPH,GustSpeedMaxMPH,PrecipitationSumIn
2013-2-1,38.0,30.3,19.0,26.0,22.2,13.0,85,71,56,0.00,40.00,13,4,22,0.00
2013-2-2,42.0,22.5,9.0,21.0,13.5,5.0,86,70,36,0.00,40.00,8,2,13,0.00
2013-2-3,40.0,25.5,17.0,19.0,13.6,9.0,82,63,31,0.00,40.00,10,3,16,0.00
2013-2-4,39.0,23.1,9.0,19.0,11.9,5.0,84,64,37,0.00,40.00,10,4,22,0.00
2013-2-5,48.0,30.5,17.0,23.0,16.2,11.0,76,57,26,0.00,40.00,5,2,8,0.00
2013-2-6,38.0,30.4,16.0,20.0,17.2,8.0,76,58,43,0.00,40.00,12,5,20,0.00
2013-2-7,42.0,23.9,8.0,14.0,9.1,3.0,84,57,20,0.00,40.00,6,3,15,0.00
2013-2-8,39.0,30.2,24.0,26.0,19.7,14.0,85,66,45,0.00,40.00,13,5,20,0.00
2013-2-9,30.0,23.7,19.0,22.0,19.1,16.0,90,82,68,0.00,40.00,12,5,19,0.00
2013-2-10,28.0,20.6,13.0,18.0,15.1,10.0,87,79,63,0.00,40.00,10,4,17,0.00
2013-2-11,26.0,14.1,3.0,13.0,7.4,-1.0,85,75,56,0.00,40.00,12,4,19,0.00
2013-2-12,27.0,16.0,1.0,16.0,9.2,-3.0,83,74,55,0.00,40.00,14,5,21,0.00
2013-2-13,32.0,26.9,18.0,22.0,19.1,13.0,83,72,62,0.00,40.00,12,5,20,0.00
2013-2-14,33.0,28.0,20.0,25.0,20.5,14.0,87,73,57,0.00,40.00,12,7,20,0.00
2013-2-15,36.0,26.5,19.0,22.0,17.8,12.0,80,69,49,0.00,40.00,9,4,16,0.00
2013-2-16,46.0,26.5,12.0,19.0,14.2,8.0,86,63,28,0.00,40.00,6,3,9,0.00
2013-2-17,35.0,25.7,15.0,23.0,15.4,7.0,79,65,49,0.00,40.00,15,7,25,0.00
2013-2-18,35.0,19.8,3.0,14.0,8.3,-2.0,83,62,38,0.00,40.00,7,3,11,0.00
2013-2-19,41.0,28.9,16.0,14.0,8.7,4.0,59,43,29,0.00,40.00,13,6,25,0.00
2013-2-20,37.0,29.3,24.0,25.0,18.1,10.0,90,63,44,0.00,40.00,12,5,19,0.00
2013-2-21,27.0,22.3,15.0,22.0,16.0,10.0,88,76,62,0.00,40.00,13,8,21,0.00
2013-2-22,27.0,18.9,13.0,18.0,12.8,8.0,87,76,62,0.00,40.00,14,5,22,0.00
2013-2-23,28.0,19.9,16.0,22.0,16.1,10.0,94,85,68,0.00,40.00,17,8,29,0.00
2013-2-24,25.0,18.0,8.0,21.0,14.2,0.0,92,85,65,0.00,40.00,12,5,19,0.00
2013-2-25,33.0,16.0,-2.0,16.0,5.6,-7.0,84,65,37,0.00,40.00,9,4,18,0.00
2013-2-26,24.0,19.3,8.0,18.0,14.2,1.0,90,80,70,0.00,40.00,14,8,23,0.00
2013-2-27,27.0,12.5,-5.0,11.0,2.9,-9.0,83,66,40,0.00,40.00,10,4,16,0.00
2013-2-28,37.0,22.0,4.0,19.0,9.4,0.0,84,61,34,0.00,40.00,8,3,17,0.00